Time,TemperatureF,DewpointF,PressureIn,WindDirection,WindDirectionDegrees,WindSpeedMPH,WindSpeedGustMPH,Humidity,HourlyPrecipIn,Conditions,Clouds,dailyrainin,SoftwareType,DateUTC
2013-08-02 00:05:00,67.9,65.8,29.92,WSW,256,0.0,0.0,93,0.00,,,0.00,Wunderground v.1.15,2013-08-02 04:05:00,
2013-08-02 00:10:00,67.9,65.8,29.92,WSW,256,0.0,0.0,93,0.00,,,0.00,Wunderground v.1.15,2013-08-02 04:10:00,
2013-08-02 00:15:00,67.9,65.8,29.92,WSW,256,0.0,0.0,93,0.00,,,0.00,Wunderground v.1.15,2013-08-02 04:15:00,
2013-08-02 00:20:00,67.9,65.8,29.92,WSW,256,0.0,0.0,93,0.00,,,0.00,Wunderground v.1.15,2013-08-02 04:20:00,
2013-08-02 00:25:00,67.8,65.7,29.92,WSW,256,0.0,0.0,93,0.00,,,0.00,Wunderground v.1.15,2013-08-02 04:25:00,
2013-08-02 00:30:00,68.1,66.3,29.92,WSW,256,0.0,0.0,94,0.00,,,0.00,Wunderground v.1.15,2013-08-02 04:30:00,
2013-08-02 00:35:00,68.1,66.0,29.92,WSW,256,0.0,0.0,93,0.00,,,0.00,Wunderground v.1.15,2013-08-02 04:35:00,
2013-08-02 00:40:00,68.0,65.6,29.92,WSW,256,0.0,0.0,92,0.00,,,0.00,Wunderground v.1.15,2013-08-02 04:40:00,
2013-08-02 00:45:00,67.9,65.5,29.92,WSW,256,0.0,0.0,92,0.00,,,0.00,Wunderground v.1.15,2013-08-02 04:45:00,
2013-08-02 00:50:00,68.0,65.6,29.92,WSW,256,0.0,0.0,92,0.00,,,0.00,Wunderground v.1.15,2013-08-02 04:50:00,
2013-08-02 01:00:00,67.9,65.2,29.91,WSW,256,1.0,1.0,91,0.00,,,0.00,Wunderground v.1.15,2013-08-02 05:00:00,
2013-08-02 01:10:00,67.8,65.4,29.91,WSW,256,0.0,2.0,92,0.00,,,0.00,Wunderground v.1.15,2013-08-02 05:10:00,
2013-08-02 01:15:00,67.7,65.3,29.91,West,262,1.0,2.0,92,0.00,,,0.01,Wunderground v.1.15,2013-08-02 05:15:00,
2013-08-02 01:20:00,67.6,65.2,29.91,West,262,1.0,1.0,92,0.00,,,0.01,Wunderground v.1.15,2013-08-02 05:20:00,
2013-08-02 01:25:00,67.3,64.9,29.91,West,262,1.0,1.0,92,0.00,,,0.01,Wunderground v.1.15,2013-08-02 05:25:00,
2013-08-02 01:30:00,67.2,64.8,29.91,West,262,1.0,2.0,92,0.00,,,0.01,Wunderground v.1.15,2013-08-02 05:30:00,
2013-08-02 01:35:00,67.0,64.6,29.91,West,262,0.0,2.0,92,0.00,,,0.01,Wunderground v.1.15,2013-08-02 05:35:00,
2013-08-02 01:40:00,67.0,64.6,29.91,West,261,0.0,0.0,92,0.00,,,0.01,Wunderground v.1.15,2013-08-02 05:40:00,
2013-08-02 01:45:00,66.8,64.4,29.91,West,261,0.0,0.0,92,0.00,,,0.02,Wunderground v.1.15,2013-08-02 05:45:00,
2013-08-02 01:50:00,66.7,64.3,29.90,West,261,0.0,1.0,92,0.10,,,0.03,Wunderground v.1.15,2013-08-02 05:50:00,
2013-08-02 01:55:00,66.4,64.0,29.90,West,261,1.0,1.0,92,0.12,,,0.04,Wunderground v.1.15,2013-08-02 05:55:00,
2013-08-02 02:00:00,66.1,63.7,29.90,WSW,250,1.0,2.0,92,0.53,,,0.07,Wunderground v.1.15,2013-08-02 06:00:00,
2013-08-02 02:10:00,65.6,63.5,29.90,WSW,253,1.0,1.0,93,0.18,,,0.12,Wunderground v.1.15,2013-08-02 06:10:00,
2013-08-02 02:20:00,65.3,63.5,29.89,WSW,252,1.0,2.0,94,0.14,,,0.15,Wunderground v.1.15,2013-08-02 06:20:00,
2013-08-02 02:25:00,65.2,63.4,29.89,WSW,252,1.0,2.0,94,0.07,,,0.15,Wunderground v.1.15,2013-08-02 06:25:00,
2013-08-02 02:30:00,65.2,63.4,29.89,WSW,252,0.0,0.0,94,0.05,,,0.16,Wunderground v.1.15,2013-08-02 06:30:00,
2013-08-02 02:35:00,65.2,63.4,29.89,WSW,252,1.0,1.0,94,0.12,,,0.17,Wunderground v.1.15,2013-08-02 06:35:00,
2013-08-02 02:40:00,65.0,63.2,29.89,WSW,253,1.0,2.0,94,0.25,,,0.19,Wunderground v.1.15,2013-08-02 06:40:00,
2013-08-02 02:45:00,64.9,63.1,29.88,WSW,252,1.0,2.0,94,0.11,,,0.20,Wunderground v.1.15,2013-08-02 06:45:00,
2013-08-02 02:55:00,64.9,63.4,29.88,WSW,252,1.0,1.0,95,0.07,,,0.21,Wunderground v.1.15,2013-08-02 06:55:00,
2013-08-02 03:00:00,64.9,63.4,29.88,WSW,252,0.0,0.0,95,0.07,,,0.21,Wunderground v.1.15,2013-08-02 07:00:00,
2013-08-02 03:05:00,64.8,63.3,29.88,WSW,252,0.0,0.0,95,0.05,,,0.21,Wunderground v.1.15,2013-08-02 07:05:00,
2013-08-02 03:10:00,64.7,63.2,29.88,WSW,252,0.0,0.0,95,0.00,,,0.21,Wunderground v.1.15,2013-08-02 07:10:00,
2013-08-02 03:20:00,64.8,63.3,29.87,WSW,252,0.0,0.0,95,0.00,,,0.22,Wunderground v.1.15,2013-08-02 07:20:00,
2013-08-02 03:25:00,64.8,63.3,29.87,WSW,252,0.0,0.0,95,0.00,,,0.22,Wunderground v.1.15,2013-08-02 07:25:00,
2013-08-02 03:35:00,64.8,63.6,29.87,WSW,252,0.0,0.0,96,0.06,,,0.23,Wunderground v.1.15,2013-08-02 07:35:00,
2013-08-02 03:40:00,64.8,63.6,29.87,WSW,252,0.0,0.0,96,0.05,,,0.23,Wunderground v.1.15,2013-08-02 07:40:00,
2013-08-02 03:45:00,64.7,63.5,29.87,WSW,252,0.0,0.0,96,0.13,,,0.25,Wunderground v.1.15,2013-08-02 07:45:00,
2013-08-02 03:50:00,64.7,63.5,29.86,WSW,252,0.0,0.0,96,0.26,,,0.27,Wunderground v.1.15,2013-08-02 07:50:00,
2013-08-02 03:55:00,64.8,63.6,29.86,WSW,252,0.0,0.0,96,0.13,,,0.28,Wunderground v.1.15,2013-08-02 07:55:00,
2013-08-02 04:05:00,64.7,63.5,29.86,WSW,252,0.0,0.0,96,0.05,,,0.28,Wunderground v.1.15,2013-08-02 08:05:00,
2013-08-02 04:10:00,64.7,63.5,29.86,WSW,252,0.0,0.0,96,0.04,,,0.29,Wunderground v.1.15,2013-08-02 08:10:00,
2013-08-02 04:19:00,64.8,63.6,29.86,WSW,252,0.0,0.0,96,0.06,,,0.30,Wunderground v.1.15,2013-08-02 08:19:00,
2013-08-02 04:25:00,64.7,63.5,29.86,WSW,252,0.0,0.0,96,0.06,,,0.30,Wunderground v.1.15,2013-08-02 08:25:00,
2013-08-02 04:30:00,64.8,63.6,29.86,WSW,252,0.0,0.0,96,0.07,,,0.31,Wunderground v.1.15,2013-08-02 08:30:00,
2013-08-02 04:35:00,64.8,63.6,29.86,WSW,252,0.0,0.0,96,0.12,,,0.32,Wunderground v.1.15,2013-08-02 08:35:00,
2013-08-02 04:45:00,64.8,63.6,29.87,WSW,241,2.0,3.0,96,0.09,,,0.34,Wunderground v.1.15,2013-08-02 08:45:00,
2013-08-02 04:50:00,64.7,63.5,29.87,West,272,2.0,2.0,96,0.09,,,0.34,Wunderground v.1.15,2013-08-02 08:50:00,
2013-08-02 04:55:00,64.7,63.5,29.87,WSW,257,2.0,2.0,96,0.06,,,0.35,Wunderground v.1.15,2013-08-02 08:55:00,
2013-08-02 05:00:00,64.7,63.5,29.87,SW,232,1.0,1.0,96,0.06,,,0.35,Wunderground v.1.15,2013-08-02 09:00:00,
2013-08-02 05:05:00,64.4,63.2,29.87,SW,228,2.0,2.0,96,0.08,,,0.36,Wunderground v.1.15,2013-08-02 09:05:00,
2013-08-02 05:10:00,64.3,63.1,29.87,WSW,239,2.0,2.0,96,0.08,,,0.36,Wunderground v.1.15,2013-08-02 09:10:00,
2013-08-02 05:20:00,63.8,62.3,29.87,SSW,193,3.0,3.0,95,0.00,,,0.36,Wunderground v.1.15,2013-08-02 09:20:00,
2013-08-02 05:25:00,63.5,62.0,29.87,SSW,201,3.0,3.0,95,0.00,,,0.37,Wunderground v.1.15,2013-08-02 09:25:00,
2013-08-02 05:30:00,63.5,62.0,29.87,SSW,211,2.0,2.0,95,0.00,,,0.37,Wunderground v.1.15,2013-08-02 09:30:00,
2013-08-02 05:40:00,63.2,61.7,29.87,SSW,197,1.0,1.0,95,0.00,,,0.37,Wunderground v.1.15,2013-08-02 09:40:00,
2013-08-02 05:45:00,63.2,62.0,29.87,SW,229,1.0,1.0,96,0.00,,,0.38,Wunderground v.1.15,2013-08-02 09:45:00,
2013-08-02 05:50:00,63.2,62.0,29.87,SW,220,1.0,1.0,96,0.00,,,0.38,Wunderground v.1.15,2013-08-02 09:50:00,
2013-08-02 06:00:00,63.4,62.2,29.87,SW,220,1.0,1.0,96,0.00,,,0.38,Wunderground v.1.15,2013-08-02 10:00:00,
2013-08-02 06:10:00,63.5,62.3,29.86,SW,220,1.0,2.0,96,0.00,,,0.38,Wunderground v.1.15,2013-08-02 10:10:00,
2013-08-02 06:15:00,63.5,62.3,29.87,SW,216,1.0,2.0,96,0.00,,,0.38,Wunderground v.1.15,2013-08-02 10:15:00,
2013-08-02 06:20:00,63.6,62.4,29.87,SSW,197,1.0,1.0,96,0.00,,,0.38,Wunderground v.1.15,2013-08-02 10:20:00,
2013-08-02 06:30:00,63.8,62.6,29.87,WSW,258,1.0,3.0,96,0.00,,,0.39,Wunderground v.1.15,2013-08-02 10:30:00,
2013-08-02 06:40:00,64.0,63.1,29.87,WSW,245,2.0,2.0,97,0.00,,,0.39,Wunderground v.1.15,2013-08-02 10:40:00,
2013-08-02 06:45:00,64.2,63.0,29.87,WSW,252,1.0,2.0,96,0.00,,,0.40,Wunderground v.1.15,2013-08-02 10:45:00,
2013-08-02 06:50:00,64.2,63.0,29.87,SSW,197,1.0,2.0,96,0.14,,,0.41,Wunderground v.1.15,2013-08-02 10:50:00,
2013-08-02 06:55:00,64.1,62.9,29.87,SW,236,2.0,3.0,96,0.12,,,0.42,Wunderground v.1.15,2013-08-02 10:55:00,
2013-08-02 07:00:00,64.0,62.8,29.87,WSW,244,2.0,2.0,96,0.07,,,0.42,Wunderground v.1.15,2013-08-02 11:00:00,
2013-08-02 07:05:00,64.1,62.9,29.87,WNW,286,2.0,2.0,96,0.04,,,0.42,Wunderground v.1.15,2013-08-02 11:05:00,
2013-08-02 07:15:00,64.1,62.9,29.87,SW,232,2.0,2.0,96,0.00,,,0.42,Wunderground v.1.15,2013-08-02 11:15:00,
2013-08-02 07:20:00,64.1,62.9,29.87,WSW,243,2.0,2.0,96,0.00,,,0.42,Wunderground v.1.15,2013-08-02 11:20:00,
2013-08-02 07:25:00,64.3,63.1,29.87,SSW,210,1.0,2.0,96,0.00,,,0.42,Wunderground v.1.15,2013-08-02 11:25:00,
2013-08-02 07:30:00,64.2,63.0,29.87,WSW,251,2.0,2.0,96,0.00,,,0.42,Wunderground v.1.15,2013-08-02 11:30:00,
2013-08-02 07:40:00,64.3,63.1,29.87,SSW,207,3.0,3.0,96,0.00,,,0.42,Wunderground v.1.15,2013-08-02 11:40:00,
2013-08-02 07:50:00,64.3,63.1,29.87,West,265,2.0,2.0,96,0.00,,,0.42,Wunderground v.1.15,2013-08-02 11:50:00,
2013-08-02 07:55:00,64.4,63.2,29.87,South,185,2.0,2.0,96,0.00,,,0.42,Wunderground v.1.15,2013-08-02 11:55:00,
2013-08-02 08:00:00,64.3,63.1,29.87,SW,233,3.0,3.0,96,0.00,,,0.42,Wunderground v.1.15,2013-08-02 12:00:00,
2013-08-02 08:05:00,64.4,63.2,29.87,WSW,237,3.0,3.0,96,0.00,,,0.42,Wunderground v.1.15,2013-08-02 12:05:00,
2013-08-02 08:10:00,64.5,63.3,29.87,SSW,199,2.0,2.0,96,0.00,,,0.43,Wunderground v.1.15,2013-08-02 12:10:00,
2013-08-02 08:15:00,64.5,63.3,29.87,SW,231,2.0,2.0,96,0.00,,,0.43,Wunderground v.1.15,2013-08-02 12:15:00,
2013-08-02 08:25:00,64.6,63.4,29.87,SSW,207,2.0,4.0,96,0.00,,,0.43,Wunderground v.1.15,2013-08-02 12:25:00,
2013-08-02 08:30:00,64.6,63.4,29.87,SSW,212,3.0,3.0,96,0.00,,,0.43,Wunderground v.1.15,2013-08-02 12:30:00,
2013-08-02 08:35:00,64.6,63.4,29.86,SW,224,3.0,3.0,96,0.00,,,0.43,Wunderground v.1.15,2013-08-02 12:35:00,
2013-08-02 08:45:00,64.8,63.6,29.86,WSW,239,2.0,4.0,96,0.09,,,0.45,Wunderground v.1.15,2013-08-02 12:45:00,
2013-08-02 08:50:00,64.8,63.6,29.86,WSW,247,2.0,2.0,96,0.08,,,0.45,Wunderground v.1.15,2013-08-02 12:50:00,
2013-08-02 08:55:00,64.9,63.7,29.87,WSW,257,1.0,2.0,96,0.05,,,0.45,Wunderground v.1.15,2013-08-02 12:55:00,
2013-08-02 09:05:00,64.9,63.7,29.86,SW,235,1.0,3.0,96,0.00,,,0.45,Wunderground v.1.15,2013-08-02 13:05:00,
2013-08-02 09:10:00,65.0,63.8,29.86,SSW,206,2.0,3.0,96,0.00,,,0.45,Wunderground v.1.15,2013-08-02 13:10:00,
2013-08-02 09:15:00,65.0,63.8,29.86,WSW,248,2.0,3.0,96,0.00,,,0.45,Wunderground v.1.15,2013-08-02 13:15:00,
2013-08-02 09:20:00,65.2,64.0,29.86,SW,216,2.0,2.0,96,0.00,,,0.45,Wunderground v.1.15,2013-08-02 13:20:00,
2013-08-02 09:25:00,65.3,64.1,29.86,WNW,284,3.0,3.0,96,0.00,,,0.45,Wunderground v.1.15,2013-08-02 13:25:00,
2013-08-02 09:30:00,65.3,64.1,29.86,WSW,241,3.0,3.0,96,0.00,,,0.45,Wunderground v.1.15,2013-08-02 13:30:00,
2013-08-02 09:35:00,65.3,64.1,29.86,SSW,209,3.0,3.0,96,0.00,,,0.45,Wunderground v.1.15,2013-08-02 13:35:00,
2013-08-02 09:40:00,65.5,64.3,29.86,WSW,241,3.0,4.0,96,0.00,,,0.45,Wunderground v.1.15,2013-08-02 13:40:00,
2013-08-02 09:45:00,65.6,64.4,29.86,WSW,249,3.0,4.0,96,0.00,,,0.45,Wunderground v.1.15,2013-08-02 13:45:00,
2013-08-02 09:50:00,65.8,64.6,29.86,WSW,255,2.0,2.0,96,0.00,,,0.45,Wunderground v.1.15,2013-08-02 13:50:00,
2013-08-02 09:55:00,65.9,64.4,29.86,WSW,239,2.0,2.0,95,0.00,,,0.45,Wunderground v.1.15,2013-08-02 13:55:00,
2013-08-02 10:00:00,66.0,64.5,29.85,South,184,3.0,3.0,95,0.00,,,0.45,Wunderground v.1.15,2013-08-02 14:00:00,
2013-08-02 10:10:00,66.5,65.0,29.86,West,277,2.0,3.0,95,0.00,,,0.45,Wunderground v.1.15,2013-08-02 14:10:00,
2013-08-02 10:20:00,66.2,64.4,29.86,WSW,250,4.0,5.0,94,0.00,,,0.45,Wunderground v.1.15,2013-08-02 14:20:00,
2013-08-02 10:25:00,66.0,64.2,29.86,WSW,251,4.0,5.0,94,0.00,,,0.45,Wunderground v.1.15,2013-08-02 14:25:00,
2013-08-02 10:30:00,65.9,64.4,29.86,West,260,4.0,6.0,95,0.00,,,0.45,Wunderground v.1.15,2013-08-02 14:30:00,
2013-08-02 10:35:00,66.1,64.6,29.86,WSW,237,3.0,6.0,95,0.00,,,0.45,Wunderground v.1.15,2013-08-02 14:35:00,
2013-08-02 10:40:00,66.2,64.7,29.85,WNW,289,3.0,3.0,95,0.00,,,0.45,Wunderground v.1.15,2013-08-02 14:40:00,
2013-08-02 10:45:00,66.5,65.0,29.86,West,269,2.0,3.0,95,0.00,,,0.45,Wunderground v.1.15,2013-08-02 14:45:00,
2013-08-02 10:55:00,66.7,65.2,29.85,SSW,205,2.0,4.0,95,0.00,,,0.45,Wunderground v.1.15,2013-08-02 14:55:00,
2013-08-02 11:00:00,66.9,65.4,29.85,WNW,293,2.0,2.0,95,0.00,,,0.45,Wunderground v.1.15,2013-08-02 15:00:00,
2013-08-02 11:10:00,67.4,65.6,29.85,West,264,2.0,3.0,94,0.00,,,0.45,Wunderground v.1.15,2013-08-02 15:10:00,
2013-08-02 11:15:00,67.4,65.3,29.85,WSW,257,2.0,3.0,93,0.00,,,0.45,Wunderground v.1.15,2013-08-02 15:15:00,
2013-08-02 11:20:00,67.6,65.5,29.85,SW,234,2.0,2.0,93,0.00,,,0.45,Wunderground v.1.15,2013-08-02 15:20:00,
2013-08-02 11:30:00,67.9,65.5,29.85,West,268,2.0,2.0,92,0.00,,,0.45,Wunderground v.1.15,2013-08-02 15:30:00,
2013-08-02 11:35:00,68.0,65.6,29.85,WNW,286,2.0,2.0,92,0.00,,,0.45,Wunderground v.1.15,2013-08-02 15:35:00,
2013-08-02 11:40:00,68.1,65.4,29.85,SSW,193,2.0,2.0,91,0.00,,,0.45,Wunderground v.1.15,2013-08-02 15:40:00,
2013-08-02 11:45:00,68.2,65.8,29.84,West,261,2.0,5.0,92,0.00,,,0.45,Wunderground v.1.15,2013-08-02 15:45:00,
2013-08-02 11:50:00,68.3,65.6,29.84,SSW,212,2.0,5.0,91,0.00,,,0.45,Wunderground v.1.15,2013-08-02 15:50:00,
2013-08-02 11:55:00,68.5,65.8,29.84,SW,219,3.0,5.0,91,0.00,,,0.45,Wunderground v.1.15,2013-08-02 15:55:00,
2013-08-02 12:05:00,69.2,65.8,29.85,WNW,296,2.0,3.0,89,0.00,,,0.45,Wunderground v.1.15,2013-08-02 16:05:00,
2013-08-02 12:10:00,69.3,65.6,29.85,West,261,3.0,3.0,88,0.00,,,0.45,Wunderground v.1.15,2013-08-02 16:10:00,
2013-08-02 12:15:00,69.2,65.8,29.85,West,268,3.0,3.0,89,0.00,,,0.45,Wunderground v.1.15,2013-08-02 16:15:00,
2013-08-02 12:20:00,69.3,65.9,29.85,West,280,2.0,2.0,89,0.00,,,0.45,Wunderground v.1.15,2013-08-02 16:20:00,
2013-08-02 12:25:00,69.5,66.1,29.85,WSW,240,2.0,3.0,89,0.00,,,0.45,Wunderground v.1.15,2013-08-02 16:25:00,
2013-08-02 12:30:00,69.8,66.1,29.84,SW,228,2.0,2.0,88,0.00,,,0.45,Wunderground v.1.15,2013-08-02 16:30:00,
2013-08-02 12:35:00,70.0,66.3,29.84,South,185,2.0,5.0,88,0.00,,,0.45,Wunderground v.1.15,2013-08-02 16:35:00,
2013-08-02 12:45:00,70.1,66.0,29.84,SW,225,2.0,3.0,87,0.00,,,0.45,Wunderground v.1.15,2013-08-02 16:45:00,
2013-08-02 12:50:00,70.3,66.2,29.84,WSW,249,2.0,2.0,87,0.00,,,0.45,Wunderground v.1.15,2013-08-02 16:50:00,
2013-08-02 12:55:00,70.7,66.6,29.84,WSW,245,2.0,3.0,87,0.00,,,0.45,Wunderground v.1.15,2013-08-02 16:55:00,
2013-08-02 13:00:00,70.5,66.1,29.83,WNW,288,1.0,1.0,86,0.00,,,0.45,Wunderground v.1.15,2013-08-02 17:00:00,
2013-08-02 13:09:00,71.0,66.3,29.84,SW,226,1.0,3.0,85,0.00,,,0.45,Wunderground v.1.15,2013-08-02 17:09:00,
2013-08-02 13:15:00,71.3,66.6,29.84,WSW,248,2.0,3.0,85,0.00,,,0.45,Wunderground v.1.15,2013-08-02 17:15:00,
2013-08-02 13:25:00,71.4,66.3,29.84,West,262,2.0,4.0,84,0.00,,,0.45,Wunderground v.1.15,2013-08-02 17:25:00,
2013-08-02 13:30:00,71.7,66.6,29.83,WSW,248,2.0,3.0,84,0.00,,,0.45,Wunderground v.1.15,2013-08-02 17:30:00,
2013-08-02 13:35:00,71.9,66.8,29.83,SSW,195,1.0,3.0,84,0.00,,,0.45,Wunderground v.1.15,2013-08-02 17:35:00,
2013-08-02 13:40:00,72.1,66.6,29.83,SSW,195,1.0,1.0,83,0.00,,,0.45,Wunderground v.1.15,2013-08-02 17:40:00,
2013-08-02 13:45:00,72.7,67.2,29.83,SW,234,1.0,4.0,83,0.00,,,0.45,Wunderground v.1.15,2013-08-02 17:45:00,
2013-08-02 13:55:00,73.3,67.1,29.82,WNW,284,1.0,2.0,81,0.00,,,0.45,Wunderground v.1.15,2013-08-02 17:55:00,
2013-08-02 14:00:00,73.3,66.4,29.82,South,179,1.0,1.0,79,0.00,,,0.45,Wunderground v.1.15,2013-08-02 18:00:00,
2013-08-02 14:05:00,73.8,66.5,29.82,South,180,1.0,2.0,78,0.00,,,0.45,Wunderground v.1.15,2013-08-02 18:05:00,
2013-08-02 14:10:00,74.6,67.3,29.82,South,189,0.0,0.0,78,0.00,,,0.45,Wunderground v.1.15,2013-08-02 18:10:00,
2013-08-02 14:15:00,75.4,67.7,29.82,SSE,163,1.0,1.0,77,0.00,,,0.45,Wunderground v.1.15,2013-08-02 18:15:00,
2013-08-02 14:20:00,75.7,67.6,29.82,WSW,253,2.0,2.0,76,0.00,,,0.45,Wunderground v.1.15,2013-08-02 18:20:00,
2013-08-02 14:30:00,76.1,67.6,29.82,SSE,167,1.0,1.0,75,0.00,,,0.45,Wunderground v.1.15,2013-08-02 18:30:00,
2013-08-02 14:40:00,75.5,67.8,29.82,South,176,1.0,1.0,77,0.00,,,0.45,Wunderground v.1.15,2013-08-02 18:40:00,
2013-08-02 14:45:00,75.3,67.6,29.82,SW,222,1.0,4.0,77,0.00,,,0.45,Wunderground v.1.15,2013-08-02 18:45:00,
2013-08-02 14:50:00,75.9,67.0,29.82,SSW,206,1.0,1.0,74,0.00,,,0.45,Wunderground v.1.15,2013-08-02 18:50:00,
2013-08-02 14:55:00,76.3,68.2,29.82,WSW,245,1.0,1.0,76,0.00,,,0.45,Wunderground v.1.15,2013-08-02 18:55:00,
2013-08-02 15:00:00,76.9,67.6,29.81,SSE,160,1.0,4.0,73,0.00,,,0.45,Wunderground v.1.15,2013-08-02 19:00:00,
2013-08-02 15:05:00,76.9,67.6,29.81,WSW,245,2.0,4.0,73,0.00,,,0.45,Wunderground v.1.15,2013-08-02 19:05:00,
2013-08-02 15:10:00,77.1,68.2,29.81,SE,128,2.0,2.0,74,0.00,,,0.45,Wunderground v.1.15,2013-08-02 19:10:00,
2013-08-02 15:15:00,77.1,67.4,29.81,WSW,247,3.0,3.0,72,0.00,,,0.45,Wunderground v.1.15,2013-08-02 19:15:00,
2013-08-02 15:20:00,77.3,68.0,29.80,SW,234,2.0,7.0,73,0.00,,,0.45,Wunderground v.1.15,2013-08-02 19:20:00,
2013-08-02 15:25:00,76.9,68.0,29.80,West,263,3.0,7.0,74,0.00,,,0.45,Wunderground v.1.15,2013-08-02 19:25:00,
2013-08-02 15:30:00,77.0,68.1,29.80,West,268,4.0,4.0,74,0.00,,,0.45,Wunderground v.1.15,2013-08-02 19:30:00,
2013-08-02 15:35:00,77.2,68.3,29.79,South,180,3.0,4.0,74,0.00,,,0.45,Wunderground v.1.15,2013-08-02 19:35:00,
2013-08-02 15:45:00,76.6,67.7,29.80,SW,219,3.0,4.0,74,0.00,,,0.45,Wunderground v.1.15,2013-08-02 19:45:00,
2013-08-02 15:50:00,76.5,68.0,29.80,SW,218,2.0,2.0,75,0.00,,,0.45,Wunderground v.1.15,2013-08-02 19:50:00,
2013-08-02 15:55:00,76.7,68.2,29.80,SW,216,2.0,2.0,75,0.00,,,0.45,Wunderground v.1.15,2013-08-02 19:55:00,
2013-08-02 16:05:00,77.5,68.2,29.80,South,179,3.0,5.0,73,0.00,,,0.45,Wunderground v.1.15,2013-08-02 20:05:00,
2013-08-02 16:10:00,77.4,68.5,29.79,South,175,3.0,3.0,74,0.00,,,0.45,Wunderground v.1.15,2013-08-02 20:10:00,
2013-08-02 16:15:00,77.6,67.9,29.80,WSW,255,3.0,3.0,72,0.00,,,0.45,Wunderground v.1.15,2013-08-02 20:15:00,
2013-08-02 16:25:00,77.6,68.3,29.80,SW,224,3.0,4.0,73,0.00,,,0.45,Wunderground v.1.15,2013-08-02 20:25:00,
2013-08-02 16:30:00,77.3,68.0,29.81,WNW,293,2.0,3.0,73,0.00,,,0.45,Wunderground v.1.15,2013-08-02 20:30:00,
2013-08-02 16:35:00,76.5,67.6,29.81,WSW,239,2.0,3.0,74,0.00,,,0.45,Wunderground v.1.15,2013-08-02 20:35:00,
2013-08-02 16:40:00,75.5,67.0,29.82,North,349,2.0,4.0,75,0.00,,,0.45,Wunderground v.1.15,2013-08-02 20:40:00,
2013-08-02 16:45:00,73.9,63.5,29.82,NW,310,2.0,4.0,70,0.00,,,0.45,Wunderground v.1.15,2013-08-02 20:45:00,
2013-08-02 16:50:00,72.8,62.4,29.83,NE,48,3.0,5.0,70,0.00,,,0.45,Wunderground v.1.15,2013-08-02 20:50:00,
2013-08-02 17:00:00,71.5,62.4,29.82,NNW,341,2.0,2.0,73,0.00,,,0.45,Wunderground v.1.15,2013-08-02 21:00:00,
2013-08-02 17:10:00,70.9,62.6,29.83,NNE,33,0.0,0.0,75,0.00,,,0.45,Wunderground v.1.15,2013-08-02 21:10:00,
2013-08-02 17:14:00,70.4,63.2,29.83,NNE,20,0.0,0.0,78,0.00,,,0.45,Wunderground v.1.15,2013-08-02 21:14:00,
2013-08-02 17:19:00,69.6,63.2,29.82,NE,54,1.0,1.0,80,0.00,,,0.45,Wunderground v.1.15,2013-08-02 21:19:00,
2013-08-02 17:25:00,68.8,63.1,29.83,ENE,60,1.0,1.0,82,0.00,,,0.45,Wunderground v.1.15,2013-08-02 21:25:00,
2013-08-02 17:30:00,68.4,63.7,29.82,ENE,62,1.0,1.0,85,0.00,,,0.46,Wunderground v.1.15,2013-08-02 21:30:00,
2013-08-02 17:35:00,68.1,64.1,29.82,ENE,62,0.0,1.0,87,0.00,,,0.46,Wunderground v.1.15,2013-08-02 21:35:00,
2013-08-02 17:40:00,67.8,64.1,29.83,NE,51,0.0,1.0,88,0.00,,,0.46,Wunderground v.1.15,2013-08-02 21:40:00,
2013-08-02 17:45:00,67.3,63.6,29.82,SSW,212,1.0,2.0,88,0.61,,,0.57,Wunderground v.1.15,2013-08-02 21:45:00,
2013-08-02 17:50:00,67.0,64.3,29.82,East,88,2.0,2.0,91,0.36,,,0.60,Wunderground v.1.15,2013-08-02 21:50:00,
2013-08-02 17:55:00,66.8,64.7,29.81,ENE,57,1.0,2.0,93,0.16,,,0.61,Wunderground v.1.15,2013-08-02 21:55:00,
2013-08-02 18:00:00,67.0,64.9,29.82,ENE,58,1.0,1.0,93,0.07,,,0.61,Wunderground v.1.15,2013-08-02 22:00:00,
2013-08-02 18:10:00,67.1,65.3,29.82,ENE,62,0.0,1.0,94,0.00,,,0.61,Wunderground v.1.15,2013-08-02 22:10:00,
2013-08-02 18:20:00,67.4,65.6,29.83,SSW,197,1.0,1.0,94,0.00,,,0.61,Wunderground v.1.15,2013-08-02 22:20:00,
2013-08-02 18:25:00,67.5,65.4,29.83,SW,217,1.0,1.0,93,0.00,,,0.61,Wunderground v.1.15,2013-08-02 22:25:00,
2013-08-02 18:30:00,67.6,65.5,29.83,SW,217,1.0,1.0,93,0.00,,,0.61,Wunderground v.1.15,2013-08-02 22:30:00,
2013-08-02 18:35:00,67.3,64.9,29.82,SSW,207,0.0,2.0,92,0.00,,,0.61,Wunderground v.1.15,2013-08-02 22:35:00,
2013-08-02 18:40:00,67.0,64.9,29.83,SW,220,1.0,1.0,93,0.00,,,0.61,Wunderground v.1.15,2013-08-02 22:40:00,
2013-08-02 18:50:00,66.9,64.8,29.83,SW,218,0.0,0.0,93,0.00,,,0.61,Wunderground v.1.15,2013-08-02 22:50:00,
2013-08-02 18:55:00,67.2,65.4,29.83,SW,218,0.0,0.0,94,0.00,,,0.61,Wunderground v.1.15,2013-08-02 22:55:00,
2013-08-02 19:00:00,67.3,65.5,29.83,SW,218,0.0,0.0,94,0.00,,,0.61,Wunderground v.1.15,2013-08-02 23:00:00,
2013-08-02 19:05:00,67.2,65.1,29.83,SW,218,0.0,0.0,93,0.00,,,0.61,Wunderground v.1.15,2013-08-02 23:05:00,
2013-08-02 19:10:00,67.1,65.0,29.83,SW,218,0.0,0.0,93,0.00,,,0.61,Wunderground v.1.15,2013-08-02 23:10:00,
2013-08-02 19:15:00,67.0,64.9,29.83,SW,218,0.0,0.0,93,0.00,,,0.61,Wunderground v.1.15,2013-08-02 23:15:00,
2013-08-02 19:25:00,66.8,65.0,29.84,NE,54,0.0,0.0,94,0.00,,,0.61,Wunderground v.1.15,2013-08-02 23:25:00,
2013-08-02 19:30:00,66.7,64.9,29.84,NE,55,0.0,1.0,94,0.00,,,0.61,Wunderground v.1.15,2013-08-02 23:30:00,
2013-08-02 19:40:00,66.4,64.6,29.84,ESE,108,1.0,1.0,94,0.00,,,0.61,Wunderground v.1.15,2013-08-02 23:40:00,
2013-08-02 19:45:00,66.2,64.4,29.84,South,174,0.0,1.0,94,0.00,,,0.61,Wunderground v.1.15,2013-08-02 23:45:00,
2013-08-02 19:50:00,66.2,64.4,29.84,South,174,0.0,0.0,94,0.00,,,0.61,Wunderground v.1.15,2013-08-02 23:50:00,
2013-08-02 19:54:00,66.4,64.9,29.84,South,177,0.0,0.0,95,0.00,,,0.61,Wunderground v.1.15,2013-08-02 23:54:00,
2013-08-02 20:05:00,66.3,64.5,29.85,South,177,0.0,0.0,94,0.00,,,0.61,Wunderground v.1.15,2013-08-03 00:05:00,
2013-08-02 20:10:00,66.2,64.4,29.85,South,177,0.0,0.0,94,0.00,,,0.61,Wunderground v.1.15,2013-08-03 00:10:00,
2013-08-02 20:15:00,66.2,64.7,29.85,South,177,0.0,0.0,95,0.00,,,0.61,Wunderground v.1.15,2013-08-03 00:15:00,
2013-08-02 20:20:00,66.2,64.7,29.85,South,177,0.0,0.0,95,0.00,,,0.61,Wunderground v.1.15,2013-08-03 00:20:00,
2013-08-02 20:25:00,66.1,64.6,29.86,South,177,0.0,0.0,95,0.00,,,0.61,Wunderground v.1.15,2013-08-03 00:25:00,
2013-08-02 20:30:00,66.0,64.2,29.86,South,177,0.0,0.0,94,0.00,,,0.61,Wunderground v.1.15,2013-08-03 00:30:00,
2013-08-02 20:35:00,66.0,64.2,29.86,South,177,0.0,1.0,94,0.00,,,0.61,Wunderground v.1.15,2013-08-03 00:35:00,
2013-08-02 20:40:00,66.0,64.5,29.86,South,177,0.0,0.0,95,0.00,,,0.61,Wunderground v.1.15,2013-08-03 00:40:00,
2013-08-02 20:45:00,66.0,64.5,29.86,South,179,0.0,3.0,95,0.00,,,0.61,Wunderground v.1.15,2013-08-03 00:45:00,
2013-08-02 20:50:00,66.1,64.6,29.86,South,189,0.0,3.0,95,0.00,,,0.61,Wunderground v.1.15,2013-08-03 00:50:00,
2013-08-02 20:55:00,66.1,64.6,29.85,SSW,202,1.0,3.0,95,0.00,,,0.61,Wunderground v.1.15,2013-08-03 00:55:00,
2013-08-02 21:05:00,66.1,64.6,29.85,SSW,203,1.0,1.0,95,0.00,,,0.61,Wunderground v.1.15,2013-08-03 01:05:00,
2013-08-02 21:10:00,66.1,64.6,29.85,SSW,203,1.0,2.0,95,0.00,,,0.61,Wunderground v.1.15,2013-08-03 01:10:00,
2013-08-02 21:20:00,66.3,64.5,29.86,WSW,243,0.0,0.0,94,0.00,,,0.61,Wunderground v.1.15,2013-08-03 01:20:00,
2013-08-02 21:25:00,66.4,64.6,29.86,WSW,243,1.0,1.0,94,0.00,,,0.61,Wunderground v.1.15,2013-08-03 01:25:00,
2013-08-02 21:30:00,66.6,64.8,29.86,SW,227,1.0,1.0,94,0.00,,,0.61,Wunderground v.1.15,2013-08-03 01:30:00,
2013-08-02 21:35:00,66.7,64.9,29.86,SW,223,1.0,1.0,94,0.00,,,0.61,Wunderground v.1.15,2013-08-03 01:35:00,
2013-08-02 21:40:00,66.8,65.0,29.86,SW,223,0.0,0.0,94,0.00,,,0.61,Wunderground v.1.15,2013-08-03 01:40:00,
2013-08-02 21:45:00,66.8,64.7,29.86,SW,223,0.0,0.0,93,0.00,,,0.61,Wunderground v.1.15,2013-08-03 01:45:00,
2013-08-02 21:55:00,66.6,64.5,29.86,SW,223,0.0,0.0,93,0.00,,,0.61,Wunderground v.1.15,2013-08-03 01:55:00,
2013-08-02 22:00:00,66.6,64.5,29.86,SW,223,0.0,0.0,93,0.00,,,0.61,Wunderground v.1.15,2013-08-03 02:00:00,
2013-08-02 22:10:00,66.4,64.6,29.86,SW,223,0.0,0.0,94,0.00,,,0.61,Wunderground v.1.15,2013-08-03 02:10:00,
2013-08-02 22:14:00,66.3,64.5,29.86,SW,223,0.0,0.0,94,0.00,,,0.61,Wunderground v.1.15,2013-08-03 02:14:00,
2013-08-02 22:20:00,66.3,64.5,29.86,SW,223,0.0,0.0,94,0.00,,,0.61,Wunderground v.1.15,2013-08-03 02:20:00,
2013-08-02 22:30:00,66.2,64.4,29.86,SW,223,0.0,0.0,94,0.00,,,0.61,Wunderground v.1.15,2013-08-03 02:30:00,
2013-08-02 22:35:00,66.2,64.4,29.86,SW,223,0.0,0.0,94,0.00,,,0.61,Wunderground v.1.15,2013-08-03 02:35:00,
2013-08-02 22:40:00,66.1,64.3,29.86,SW,223,0.0,0.0,94,0.00,,,0.61,Wunderground v.1.15,2013-08-03 02:40:00,
2013-08-02 22:45:00,66.1,64.6,29.86,SW,223,0.0,0.0,95,0.00,,,0.61,Wunderground v.1.15,2013-08-03 02:45:00,
2013-08-02 22:50:00,66.1,64.6,29.86,SW,223,0.0,0.0,95,0.00,,,0.61,Wunderground v.1.15,2013-08-03 02:50:00,
2013-08-02 22:55:00,66.0,64.2,29.86,SW,223,0.0,0.0,94,0.00,,,0.61,Wunderground v.1.15,2013-08-03 02:55:00,
2013-08-02 23:04:00,65.9,64.1,29.86,SW,223,0.0,0.0,94,0.00,,,0.61,Wunderground v.1.15,2013-08-03 03:04:00,
2013-08-02 23:10:00,65.7,64.2,29.85,SW,223,0.0,0.0,95,0.00,,,0.61,Wunderground v.1.15,2013-08-03 03:10:00,
2013-08-02 23:15:00,65.7,64.2,29.85,SW,223,0.0,0.0,95,0.00,,,0.61,Wunderground v.1.15,2013-08-03 03:15:00,
2013-08-02 23:25:00,65.4,63.9,29.86,SW,223,0.0,0.0,95,0.00,,,0.61,Wunderground v.1.15,2013-08-03 03:25:00,
2013-08-02 23:30:00,65.2,63.4,29.86,SW,223,0.0,0.0,94,0.00,,,0.61,Wunderground v.1.15,2013-08-03 03:30:00,
2013-08-02 23:35:00,65.1,63.6,29.86,SW,223,0.0,0.0,95,0.00,,,0.61,Wunderground v.1.15,2013-08-03 03:35:00,
2013-08-02 23:45:00,65.0,63.5,29.86,SW,223,0.0,0.0,95,0.00,,,0.61,Wunderground v.1.15,2013-08-03 03:45:00,
2013-08-02 23:50:00,64.9,63.4,29.86,SW,223,0.0,0.0,95,0.00,,,0.61,Wunderground v.1.15,2013-08-03 03:50:00,
2013-08-02 23:55:00,64.9,63.4,29.86,SW,223,0.0,1.0,95,0.00,,,0.61,Wunderground v.1.15,2013-08-03 03:55:00,